[[{"header":{"parameterUnit":"m.s-1","parameterCategory":1,"la1":30.2991,"la2":30.254,"lo1":-89.0895,"lo2":-89.0444,"dy":0.0017,"dx":0.0017,"nx":28,"ny":28,"refTime":"2025-03-25T21:00:00:Z","depth":0,"parameterNumber":2,"parameterNumberName":"U-component_of_WINDS"},"data":[0,0,0,0,0,0,0,0,0,0,0,0,0,0,0,0,0,0,0,0,0,0,0,0,0,0,0,0,0,0,0,0,0,0,0,0,0,0,0,0,0,0,0,0,0,0,0,0,0,0,0,0,0,0,0,0,0,0,0.1938,0.1937,0,0.1906,0.1906,0.1905,0.1833,0.1832,0.183,0.1829,0.1799,0.1799,0.18,0,0,0,0,0,0,0,0,0,0,0,0,0,0.1938,0.1939,0.1938,0.1937,0.1937,0.1906,0.1906,0.1905,0.1833,0.1831,0.183,0.1828,0.1798,0.1799,0.18,0,0,0,0,0,0,0,0,0,0,0,0,0,0.1926,0.1939,0.1938,0.1897,0.1893,0.1906,0.1906,0.1905,0.1834,0.1831,0.1829,0.1827,0.1798,0.1799,0.18,0.185,0,0,0.1803,0.1803,0,0,0,0,0,0,0,0,0.1926,0.1926,0.1904,0.19,0.1896,0.1871,0.1895,0.1887,0.1834,0.1856,0.1829,0.1826,0.1825,0.1823,0.1822,0.1849,0.1848,0.1803,0.1803,0.1804,0.1804,0,0,0,0,0,0,0,0.1927,0.1927,0.1925,0.1903,0.1899,0.1881,0.1877,0.1893,0.1854,0.1854,0.1849,0.1846,0.1822,0.1822,0.1821,0.1847,0.1803,0.1804,0.1804,0.1804,0.1913,0.1915,0,0,0,0,0,0,0.1934,0.1928,0.1926,0.1924,0.1906,0.1883,0.1878,0.1881,0.1853,0.1847,0.1848,0.1843,0.1821,0.182,0.182,0.1877,0.1804,0.1805,0.1805,0.1911,0.1913,0.1916,0,0,0,0,0,0,0.1934,0.1934,0.1927,0.1925,0.1922,0.1886,0.1889,0.1882,0.1881,0.1848,0.1841,0.1855,0.1819,0.1819,0.1843,0.1875,0.1805,0.1806,0.1908,0.1912,0.1915,0.1991,0,0,0,0,0,0,0.1934,0.1935,0.1953,0.1925,0.1923,0.1951,0.1891,0.1883,0.1883,0.1876,0.1853,0.1847,0.1818,0.1842,0.1844,0.1875,0.1806,0.1905,0.1909,0.1914,0.1986,0.1997,0.2007,0,0,0,0,0,0.1935,0.1977,0.1955,0.1955,0.1945,0.1953,0.1951,0.1916,0.1886,0.1904,0.1883,0.1848,0.1871,0.1845,0.1847,0.1878,0.1903,0.1908,0.1913,0.1981,0.1995,0.2006,0,0,0,0,0,0,0.2011,0.1972,0.1947,0.1982,0.1971,0.1941,0.1963,0.1932,0.193,0.1924,0.1881,0.1877,0.1907,0.1895,0.1867,0.1925,0.1881,0.1887,0.1932,0.1945,0.1955,0.1958,0.1807,0,0,0,0,0,0.2031,0.204,0.2006,0.204,0.2036,0.2,0.2003,0.1976,0.1964,0.1959,0.194,0.193,0.1935,0.1939,0.1942,0.1983,0.1977,0.2006,0.2016,0.2025,0.2031,0.2052,0.2064,0.1933,0.1933,0.1933,0,0,0.2074,0.2054,0.2063,0.2055,0.2043,0.2054,0.1997,0.2011,0.2019,0.1962,0.1983,0.1969,0.1955,0.1988,0.2002,0.1979,0.2065,0.2032,0.2039,0.204,0.2058,0.2071,0.2082,0.1937,0.1936,0.1936,0,0,0.2158,0.2143,0.2169,0.2159,0.2142,0.2118,0.2124,0.2099,0.2086,0.2107,0.2064,0.2073,0.2082,0.2074,0.2071,0.2151,0.2118,0.2153,0.2208,0.2229,0.2239,0.2248,0.2276,0.2287,0.2158,0.2159,0.2159,0,0.2213,0.2227,0.2187,0.2204,0.2201,0.2149,0.2175,0.2167,0.2153,0.2153,0.2127,0.2137,0.2124,0.2154,0.2174,0.2173,0.2179,0.2156,0.224,0.2249,0.2257,0.2284,0.2294,0.2163,0.2162,0.2162,0.2162,0,0.2297,0.2307,0.233,0.2316,0.2316,0.2338,0.2302,0.2307,0.2281,0.226,0.2281,0.2263,0.2261,0.2267,0.2241,0.2294,0.228,0.2248,0.2203,0.2274,0.2299,0.2309,0.2169,0.2168,0.2166,0.2165,0,0,0.2428,0.2391,0.24,0.2393,0.237,0.2378,0.2397,0.2394,0.2399,0.2391,0.2406,0.2415,0.2384,0.2381,0.2354,0.2373,0.2437,0.2338,0.2337,0.2358,0.2494,0.2519,0.2531,0.2415,0.2417,0.2418,0.2495,0,0.2507,0.2537,0.2501,0.2539,0.2548,0.2498,0.2514,0.2502,0.2483,0.2488,0.2467,0.2474,0.2434,0.2431,0.2447,0.2426,0.2464,0.242,0.243,0.243,0.2435,0.2544,0.257,0.2644,0.2504,0.2506,0.2507,0,0.2603,0.2598,0.2637,0.2611,0.2613,0.2629,0.2623,0.2628,0.2614,0.2598,0.2594,0.2561,0.2579,0.2534,0.2558,0.2528,0.253,0.252,0.2522,0.2522,0.2474,0.2548,0.2666,0.2678,0.2522,0.2521,0.252,0,0.2696,0.2699,0.2722,0.2717,0.2687,0.27,0.2688,0.2671,0.2671,0.2666,0.2666,0.2664,0.2663,0.2662,0.2629,0.26,0.2657,0.261,0.2645,0.2646,0.266,0.266,0.2782,0.266,0.266,0.266,0.266,0,0.2788,0.2814,0.2763,0.2778,0.2805,0.2763,0.2792,0.2775,0.276,0.2771,0.2727,0.2738,0.2694,0.2701,0.2675,0.2699,0.2698,0.2687,0.268,0.2691,0.2693,0.2692,0.2687,0.2663,0.2662,0.2662,0.2661,0,0.2897,0.2864,0.2886,0.2855,0.2848,0.287,0.2844,0.2856,0.2833,0.2847,0.2848,0.2813,0.2818,0.2785,0.2785,0.2768,0.2804,0.2788,0.2809,0.2804,0.2842,0.2839,0.2968,0.2983,0.2852,0.2853,0.2854,0,0.2958,0.2976,0.2947,0.2951,0.2941,0.2948,0.2947,0.2907,0.2909,0.2893,0.2908,0.2909,0.2908,0.2919,0.2894,0.2893,0.2877,0.2922,0.2877,0.2888,0.2878,0.2878,0.288,0.2932,0.2934,0.2935,0.2936,0,0.3071,0.3053,0.3054,0.3049,0.305,0.3044,0.3036,0.3042,0.2998,0.3002,0.3007,0.3006,0.3005,0.3007,0.3001,0.2989,0.2956,0.2951,0.2959,0.2971,0.2982,0.2977,0.2836,0.2948,0.2947,0.2946,0.2945,0.2945,0.3158,0.3171,0.3153,0.3156,0.3145,0.3138,0.3148,0.3126,0.3128,0.3124,0.31,0.3109,0.3093,0.3082,0.3073,0.308,0.3058,0.307,0.3073,0.3077,0.3084,0.2981,0.3079,0.3078,0.3078,0.3077,0.3077,0,0.3268,0.3253,0.3256,0.3245,0.3247,0.3214,0.3203,0.3207,0.3215,0.3203,0.3203,0.3208,0.3209,0.3184,0.3182,0.3193,0.3177,0.3194,0.3193,0.3191,0.3103,0.3096,0.3206,0.3206,0.3206,0.3206,0.3206,0.3206,0.3326,0.3348,0.3328,0.3344,0.3329,0.3337,0.3333,0.3327,0.3317,0.3324,0.3325,0.3308,0.329,0.3287,0.3287,0.3279,0.3281,0.3303,0.3291,0.3209,0.3197,0.3185,0.3178,0.3304,0.3304,0.3378,0.3378,0.3379]},{"header":{"parameterUnit":"m.s-1","parameterCategory":1,"la1":30.2991,"la2":30.254,"lo1":-89.0895,"lo2":-89.0444,"dy":0.0017,"dx":0.0017,"nx":28,"ny":28,"refTime":"2025-03-25T21:00:00:Z","depth":0,"parameterNumber":3,"parameterNumberName":"V-component_of_WINDS"},"data":[0,0,0,0,0,0,0,0,0,0,0,0,0,0,0,0,0,0,0,0,0,0,0,0,0,0,0,0,0,0,0,0,0,0,0,0,0,0,0,0,0,0,0,0,0,0,0,0,0,0,0,0,0,0,0,0,0,0,0.5563,0.5563,0,0.5553,0.5553,0.5552,0.5587,0.5588,0.5589,0.559,0.5574,0.5573,0.5571,0,0,0,0,0,0,0,0,0,0,0,0,0,0.5609,0.5608,0.5563,0.5563,0.5563,0.5553,0.5553,0.5552,0.5586,0.5588,0.5589,0.559,0.5574,0.5573,0.5571,0,0,0,0,0,0,0,0,0,0,0,0,0,0.5592,0.5607,0.5563,0.5579,0.558,0.5553,0.5553,0.5552,0.5586,0.5588,0.5589,0.5591,0.5575,0.5573,0.5571,0.5527,0,0,0.5565,0.5564,0,0,0,0,0,0,0,0,0.5593,0.5591,0.5577,0.5578,0.5579,0.5573,0.5563,0.5544,0.5586,0.5584,0.559,0.5591,0.5572,0.557,0.5565,0.5526,0.5525,0.5564,0.5563,0.5562,0.5562,0,0,0,0,0,0,0,0.5594,0.5591,0.5559,0.5576,0.5578,0.5585,0.5584,0.5559,0.5569,0.5584,0.5586,0.5585,0.5573,0.5567,0.5565,0.5525,0.5564,0.5563,0.5561,0.556,0.5448,0.5447,0,0,0,0,0,0,0.5594,0.5592,0.5559,0.5559,0.559,0.5583,0.5582,0.5573,0.5569,0.557,0.5584,0.5587,0.5569,0.5567,0.5564,0.5511,0.5562,0.556,0.5559,0.545,0.5448,0.5446,0,0,0,0,0,0,0.5595,0.5591,0.556,0.5576,0.5573,0.558,0.557,0.5572,0.5566,0.5569,0.5571,0.5576,0.5571,0.5567,0.5536,0.5511,0.5559,0.5557,0.5452,0.5449,0.5447,0.5404,0,0,0,0,0,0,0.5596,0.5591,0.5575,0.5576,0.5572,0.5533,0.5568,0.5571,0.5563,0.5566,0.5562,0.5563,0.5571,0.5539,0.5534,0.5509,0.5556,0.5454,0.5451,0.5448,0.5408,0.5401,0.5394,0,0,0,0,0,0.5598,0.5563,0.5574,0.557,0.5552,0.5531,0.5529,0.5541,0.5561,0.5544,0.5546,0.5563,0.5515,0.5535,0.553,0.5504,0.5456,0.5452,0.5448,0.5411,0.5402,0.5395,0,0,0,0,0,0,0.5557,0.5563,0.5576,0.554,0.5535,0.5537,0.5516,0.5531,0.5519,0.5523,0.5537,0.5536,0.5501,0.55,0.5523,0.546,0.5489,0.5483,0.5462,0.5454,0.5447,0.5447,0.5554,0,0,0,0,0,0.5545,0.5529,0.5534,0.5502,0.5499,0.5508,0.5499,0.5509,0.5504,0.5501,0.5501,0.5494,0.5478,0.5466,0.5451,0.5409,0.5407,0.5388,0.5382,0.5376,0.537,0.5347,0.5338,0.5433,0.5433,0.5433,0,0,0.5517,0.5519,0.5507,0.5494,0.5491,0.5472,0.5506,0.5485,0.5471,0.5498,0.5468,0.5468,0.5461,0.5424,0.5407,0.5421,0.5344,0.5371,0.5367,0.5364,0.5342,0.5333,0.5324,0.5431,0.5431,0.5432,0,0,0.5458,0.5458,0.5431,0.5428,0.5424,0.5431,0.5424,0.5424,0.5425,0.5397,0.5416,0.5399,0.5371,0.5364,0.5357,0.5297,0.5311,0.5292,0.5255,0.5231,0.5224,0.5217,0.5193,0.5185,0.5287,0.5286,0.5286,0,0.5424,0.5398,0.5415,0.5392,0.5385,0.5411,0.5383,0.5379,0.5369,0.5363,0.538,0.5344,0.5341,0.5302,0.5288,0.5282,0.5273,0.5291,0.5224,0.5217,0.5211,0.5189,0.518,0.5284,0.5284,0.5285,0.5285,0,0.5355,0.5337,0.5316,0.5307,0.5298,0.5273,0.5284,0.5273,0.5284,0.5288,0.5258,0.5256,0.524,0.5233,0.5243,0.5195,0.5203,0.5222,0.525,0.5199,0.5178,0.517,0.528,0.5281,0.5282,0.5283,0,0,0.5268,0.5271,0.5262,0.5258,0.5256,0.5242,0.5218,0.5204,0.5193,0.5186,0.5164,0.514,0.5157,0.515,0.516,0.5139,0.5089,0.516,0.516,0.5145,0.5034,0.5018,0.5008,0.51,0.5098,0.5097,0.5034,0,0.5208,0.5167,0.5182,0.5139,0.5122,0.5147,0.5126,0.5121,0.5125,0.511,0.5114,0.5095,0.5121,0.5116,0.5097,0.5099,0.5066,0.5104,0.5077,0.5076,0.5076,0.4997,0.498,0.492,0.5026,0.5024,0.5023,0,0.5131,0.5123,0.5079,0.508,0.5073,0.5054,0.5042,0.5028,0.5023,0.5028,0.5019,0.5034,0.5008,0.5039,0.5003,0.5028,0.5019,0.5018,0.5016,0.5011,0.5045,0.4988,0.4902,0.4892,0.5011,0.5012,0.5013,0,0.5069,0.5046,0.5017,0.5014,0.5015,0.5,0.5,0.4997,0.4988,0.4978,0.4971,0.4958,0.495,0.4939,0.4948,0.497,0.491,0.4942,0.4911,0.491,0.4894,0.4894,0.4802,0.4893,0.4893,0.4893,0.4893,0,0.4998,0.497,0.4989,0.4971,0.4939,0.4957,0.4925,0.4927,0.4925,0.4906,0.4927,0.4909,0.4925,0.4907,0.4915,0.4883,0.488,0.488,0.4882,0.4877,0.4876,0.4868,0.4872,0.489,0.4891,0.4891,0.4892,0,0.4922,0.4934,0.4903,0.4908,0.4908,0.4884,0.4887,0.487,0.4876,0.4852,0.4847,0.4856,0.4837,0.4847,0.4827,0.4832,0.4789,0.4798,0.4791,0.4792,0.476,0.4762,0.4657,0.4643,0.4745,0.4744,0.4743,0,0.4875,0.4854,0.4856,0.4846,0.4844,0.4828,0.4819,0.4836,0.4825,0.4819,0.4801,0.4785,0.4772,0.474,0.4743,0.4727,0.4734,0.4699,0.4732,0.4727,0.4731,0.4731,0.4728,0.4691,0.469,0.4689,0.4688,0,0.4789,0.4796,0.4783,0.4773,0.4762,0.4754,0.4747,0.4737,0.4754,0.4741,0.4723,0.4713,0.4693,0.4675,0.4662,0.4659,0.4675,0.4678,0.467,0.4662,0.4658,0.4658,0.477,0.468,0.4681,0.4681,0.4682,0.4682,0.4724,0.4706,0.4705,0.469,0.4687,0.4681,0.4664,0.4669,0.4655,0.4641,0.4651,0.4629,0.4624,0.4608,0.4604,0.4586,0.46,0.4588,0.4584,0.458,0.4575,0.4664,0.4584,0.4584,0.4584,0.4585,0.4585,0,0.4637,0.4638,0.4624,0.4615,0.4603,0.4623,0.4616,0.4604,0.4585,0.458,0.4568,0.4546,0.4529,0.4532,0.4516,0.4501,0.4507,0.4496,0.4495,0.4494,0.4565,0.4573,0.449,0.449,0.449,0.449,0.449,0.449,0.459,0.456,0.4568,0.4536,0.4538,0.4517,0.4512,0.4505,0.4502,0.4477,0.4464,0.4467,0.4465,0.4449,0.4434,0.4435,0.4427,0.4412,0.4415,0.448,0.4489,0.4498,0.4506,0.4411,0.441,0.4346,0.4345,0.4345]}]]